| time (UTC) | temp F | wind direction | speed MPH | gust MPH | rain 1hr in | rain 24hr in | rain mn in | humidity % | barometer mb |
| 20260502233113 | 40 | 346 | 7.0 | 9.0 | 0.00 | 0.00 | 0.00 | 69 | 1014.1 |
| 20260502232608 | 40 | 335 | 4.0 | 6.0 | 0.00 | 0.00 | 0.00 | 69 | 1014.1 |
| 20260502232106 | 40 | 345 | 4.0 | 7.0 | 0.00 | 0.00 | 0.00 | 68 | 1014.1 |
| 20260502231603 | 41 | 4 | 5.0 | 7.0 | 0.00 | 0.00 | 0.00 | 67 | 1014.2 |
| 20260502231101 | 41 | 325 | 4.0 | 6.0 | 0.00 | 0.00 | 0.00 | 67 | 1013.9 |
| 20260502230559 | 41 | 34 | 6.0 | 9.0 | 0.00 | 0.00 | 0.00 | 66 | 1014.0 |
| 20260502230057 | 41 | 333 | 5.0 | 7.0 | 0.00 | 0.00 | 0.00 | 65 | 1013.9 |
| 20260502225552 | 42 | 313 | 7.0 | 8.0 | 0.00 | 0.00 | 0.00 | 65 | 1013.7 |
| 20260502225050 | 42 | 341 | 6.0 | 7.0 | 0.00 | 0.00 | 0.00 | 64 | 1013.8 |
| 20260502224545 | 42 | 309 | 3.0 | 3.0 | 0.00 | 0.00 | 0.00 | 65 | 1013.8 |
| 20260502224043 | 42 | 342 | 6.0 | 8.0 | 0.00 | 0.00 | 0.00 | 64 | 1013.8 |
| 20260502223540 | 42 | 32 | 2.0 | 3.0 | 0.00 | 0.00 | 0.00 | 67 | 1013.7 |
| 20260502223039 | 42 | 284 | 3.0 | 3.0 | 0.00 | 0.00 | 0.00 | 66 | 1013.8 |
| 20260502222535 | 42 | 316 | 4.0 | 6.0 | 0.00 | 0.00 | 0.00 | 65 | 1013.8 |
| 20260502222032 | 42 | 321 | 4.0 | 6.0 | 0.00 | 0.00 | 0.00 | 65 | 1013.6 |
| 20260502221527 | 43 | 342 | 5.0 | 7.0 | 0.00 | 0.00 | 0.00 | 64 | 1013.7 |
| 20260502221025 | 43 | 328 | 2.0 | 3.0 | 0.00 | 0.00 | 0.00 | 65 | 1013.6 |
| 20260502220520 | 43 | 319 | 3.0 | 3.0 | 0.00 | 0.00 | 0.00 | 65 | 1013.7 |
| 20260502220018 | 43 | 323 | 2.0 | 2.0 | 0.00 | 0.00 | 0.00 | 64 | 1013.7 |
| 20260502215515 | 43 | 43 | 2.0 | 3.0 | 0.00 | 0.00 | 0.00 | 62 | 1013.7 |
| 20260502215011 | 44 | 334 | 7.0 | 9.0 | 0.00 | 0.00 | 0.00 | 62 | 1013.4 |
| 20260502214509 | 44 | 331 | 5.0 | 8.0 | 0.00 | 0.00 | 0.00 | 62 | 1013.5 |
| 20260502214006 | 44 | 28 | 2.0 | 3.0 | 0.00 | 0.00 | 0.00 | 62 | 1013.5 |
| 20260502213502 | 44 | 337 | 6.0 | 7.0 | 0.00 | 0.00 | 0.00 | 61 | 1013.4 |
| 20260502213001 | 44 | 9 | 1.0 | 2.0 | 0.00 | 0.00 | 0.00 | 64 | 1013.5 |
| 20260502212459 | 43 | 289 | 1.0 | 1.0 | 0.00 | 0.00 | 0.00 | 64 | 1013.3 |
| 20260502211956 | 43 | 324 | 4.0 | 7.0 | 0.00 | 0.00 | 0.00 | 62 | 1013.3 |
| 20260502211452 | 44 | 286 | 5.0 | 7.0 | 0.00 | 0.00 | 0.00 | 60 | 1013.4 |
| 20260502210950 | 44 | 319 | 2.0 | 3.0 | 0.00 | 0.00 | 0.00 | 60 | 1013.3 |
| 20260502210446 | 44 | 21 | 4.0 | 6.0 | 0.00 | 0.00 | 0.00 | 60 | 1013.2 |
| 20260502205943 | 45 | 331 | 4.0 | 4.0 | 0.00 | 0.00 | 0.00 | 59 | 1013.4 |
| 20260502205439 | 45 | 311 | 4.0 | 6.0 | 0.00 | 0.00 | 0.00 | 60 | 1013.4 |
| 20260502204937 | 45 | 320 | 4.0 | 7.0 | 0.00 | 0.00 | 0.00 | 60 | 1013.4 |
| 20260502204433 | 45 | 237 | 2.0 | 3.0 | 0.00 | 0.00 | 0.00 | 58 | 1013.1 |
| 20260502203932 | 45 | 19 | 4.0 | 8.0 | 0.00 | 0.00 | 0.00 | 58 | 1013.0 |
| 20260502203428 | 45 | 357 | 4.0 | 6.0 | 0.00 | 0.00 | 0.00 | 57 | 1013.2 |
| 20260502202924 | 46 | 265 | 4.0 | 6.0 | 0.00 | 0.00 | 0.00 | 56 | 1013.1 |
| 20260502202421 | 46 | 324 | 6.0 | 8.0 | 0.00 | 0.00 | 0.00 | 55 | 1013.1 |
| 20260502201920 | 46 | 321 | 5.0 | 7.0 | 0.00 | 0.00 | 0.00 | 55 | 1013.0 |
| 20260502201415 | 47 | 348 | 3.0 | 4.0 | 0.00 | 0.00 | 0.00 | 55 | 1013.1 |
| 20260502200912 | 45 | 334 | 5.0 | 6.0 | 0.00 | 0.00 | 0.00 | 57 | 1013.3 |
| 20260502200407 | 45 | 327 | 5.0 | 6.0 | 0.00 | 0.00 | 0.00 | 57 | 1013.3 |
| 20260502195906 | 45 | 0 | 4.0 | 6.0 | 0.00 | 0.00 | 0.00 | 58 | 1013.5 |
| 20260502195403 | 45 | 356 | 4.0 | 7.0 | 0.00 | 0.00 | 0.00 | 60 | 1013.5 |
| 20260502194859 | 45 | 346 | 3.0 | 7.0 | 0.00 | 0.00 | 0.00 | 58 | 1013.3 |
| 20260502194356 | 45 | 320 | 5.0 | 8.0 | 0.00 | 0.00 | 0.00 | 58 | 1013.5 |
| 20260502193852 | 46 | 268 | 3.0 | 6.0 | 0.00 | 0.00 | 0.00 | 59 | 1013.6 |
| 20260502193349 | 45 | 329 | 3.0 | 6.0 | 0.00 | 0.00 | 0.00 | 59 | 1013.4 |
| 20260502192844 | 44 | 337 | 1.0 | 2.0 | 0.00 | 0.00 | 0.00 | 61 | 1013.5 |
| 20260502192342 | 45 | 7 | 3.0 | 3.0 | 0.00 | 0.00 | 0.00 | 57 | 1013.6 |
| 20260502191839 | 45 | 294 | 1.0 | 1.0 | 0.00 | 0.00 | 0.00 | 56 | 1013.6 |
| 20260502191337 | 46 | 262 | 2.0 | 2.0 | 0.00 | 0.00 | 0.00 | 56 | 1013.8 |
| 20260502190833 | 46 | 261 | 2.0 | 2.0 | 0.00 | 0.00 | 0.00 | 57 | 1013.6 |
| 20260502190331 | 46 | 273 | 1.0 | 3.0 | 0.00 | 0.00 | 0.00 | 59 | 1013.7 |
| 20260502185827 | 46 | 256 | 2.0 | 3.0 | 0.00 | 0.00 | 0.00 | 55 | 1013.9 |
| 20260502185322 | 47 | 332 | 5.0 | 7.0 | 0.00 | 0.00 | 0.00 | 58 | 1013.9 |
| 20260502184820 | 46 | 306 | 1.0 | 2.0 | 0.00 | 0.00 | 0.00 | 59 | 1013.9 |
| 20260502184315 | 46 | 259 | 2.0 | 3.0 | 0.00 | 0.00 | 0.00 | 58 | 1013.9 |
| 20260502183812 | 45 | 319 | 5.0 | 8.0 | 0.00 | 0.00 | 0.00 | 60 | 1014.0 |
| 20260502183308 | 44 | 335 | 5.0 | 7.0 | 0.00 | 0.00 | 0.00 | 61 | 1013.9 |
| 20260502182803 | 44 | 323 | 2.0 | 2.0 | 0.00 | 0.00 | 0.00 | 61 | 1013.9 |
| 20260502182259 | 45 | 323 | 4.0 | 6.0 | 0.00 | 0.00 | 0.00 | 60 | 1014.1 |
| 20260502181756 | 45 | 358 | 4.0 | 6.0 | 0.00 | 0.00 | 0.00 | 58 | 1014.1 |
| 20260502181255 | 46 | 263 | 3.0 | 4.0 | 0.00 | 0.00 | 0.00 | 54 | 1014.0 |
| 20260502180752 | 47 | 290 | 2.0 | 2.0 | 0.00 | 0.00 | 0.00 | 51 | 1013.9 |
| 20260502180249 | 46 | 327 | 4.0 | 6.0 | 0.00 | 0.00 | 0.00 | 55 | 1014.3 |
| 20260502170214 | 44 | 280 | 1.0 | 2.0 | 0.00 | 0.00 | 0.00 | 61 | 1014.1 |
| 20260502164201 | 46 | 288 | 1.0 | 1.0 | 0.00 | 0.00 | 0.00 | 58 | 1014.2 |
| 20260502163656 | 46 | 267 | 2.0 | 2.0 | 0.00 | 0.00 | 0.00 | 54 | 1014.2 |
| 20260502163153 | 45 | 325 | 2.0 | 3.0 | 0.00 | 0.00 | 0.00 | 57 | 1014.2 |
| 20260502162650 | 44 | 292 | 2.0 | 2.0 | 0.00 | 0.00 | 0.00 | 61 | 1014.2 |
| 20260502162147 | 44 | 259 | 2.0 | 3.0 | 0.00 | 0.00 | 0.00 | 60 | 1014.2 |
| 20260502161644 | 44 | 320 | 5.0 | 8.0 | 0.00 | 0.00 | 0.00 | 60 | 1014.3 |
| 20260502161141 | 44 | 272 | 2.0 | 2.0 | 0.00 | 0.00 | 0.00 | 59 | 1014.2 |
| 20260502160639 | 45 | 264 | 2.0 | 2.0 | 0.00 | 0.00 | 0.00 | 55 | 1014.4 |
| 20260502160137 | 46 | 274 | 3.0 | 4.0 | 0.00 | 0.00 | 0.00 | 55 | 1014.3 |
| 20260502152051 | 43 | 253 | 2.0 | 3.0 | 0.00 | 0.00 | 0.00 | 60 | 1014.4 |
| 20260502151548 | 44 | 295 | 2.0 | 2.0 | 0.00 | 0.00 | 0.00 | 63 | 1014.3 |
| 20260502151046 | 46 | 273 | 3.0 | 3.0 | 0.00 | 0.00 | 0.00 | 61 | 1014.3 |
| 20260502150543 | 45 | 264 | 1.0 | 2.0 | 0.00 | 0.00 | 0.00 | 62 | 1014.4 |
| 20260502130428 | 41 | 289 | 1.0 | 2.0 | 0.00 | 0.00 | 0.00 | 76 | 1014.3 |
| 20260502123410 | 39 | 322 | 1.0 | 1.0 | 0.00 | 0.00 | 0.00 | 83 | 1014.7 |
| 20260502122908 | 38 | 350 | 1.0 | 2.0 | 0.00 | 0.00 | 0.00 | 83 | 1014.9 |
| 20260502122404 | 38 | 10 | 1.0 | 1.0 | 0.00 | 0.00 | 0.00 | 83 | 1014.8 |
| 20260502121902 | 37 | 336 | 1.0 | 1.0 | 0.00 | 0.00 | 0.00 | 84 | 1014.9 |
| 20260502121359 | 37 | 326 | 0.0 | 1.0 | 0.00 | 0.00 | 0.00 | 84 | 1014.8 |
| 20260502120857 | 37 | 321 | 2.0 | 2.0 | 0.00 | 0.00 | 0.00 | 84 | 1014.8 |
| 20260502120352 | 37 | 338 | 2.0 | 2.0 | 0.00 | 0.00 | 0.00 | 84 | 1015.1 |
| 20260502115850 | 37 | 317 | 0.0 | 0.0 | 0.00 | 0.00 | 0.00 | 85 | 1014.9 |
| 20260502115347 | 37 | 274 | 0.0 | 1.0 | 0.00 | 0.00 | 0.00 | 85 | 1014.8 |
| 20260502114843 | 37 | 321 | 0.0 | 1.0 | 0.00 | 0.00 | 0.00 | 85 | 1014.9 |
| 20260502114340 | 37 | 312 | 0.0 | 1.0 | 0.00 | 0.00 | 0.00 | 86 | 1015.0 |
| 20260502113837 | 37 | 258 | 0.0 | 0.0 | 0.00 | 0.00 | 0.00 | 86 | 1015.2 |
| 20260502113335 | 36 | 270 | 0.0 | 1.0 | 0.00 | 0.00 | 0.00 | 86 | 1015.1 |
| 20260502112833 | 36 | 270 | 1.0 | 1.0 | 0.00 | 0.00 | 0.00 | 87 | 1015.2 |
| 20260502112330 | 36 | 268 | 0.0 | 0.0 | 0.00 | 0.00 | 0.00 | 88 | 1015.1 |
| 20260502111827 | 36 | 268 | 0.0 | 0.0 | 0.00 | 0.00 | 0.00 | 89 | 1015.3 |
| 20260502111325 | 36 | 268 | 0.0 | 0.0 | 0.00 | 0.00 | 0.00 | 89 | 1015.1 |
| 20260502110823 | 36 | 276 | 0.0 | 0.0 | 0.00 | 0.00 | 0.00 | 89 | 1015.1 |
| 20260502110320 | 36 | 280 | 0.0 | 1.0 | 0.00 | 0.00 | 0.00 | 90 | 1015.0 |
| 20260502105817 | 36 | 280 | 0.0 | 0.0 | 0.00 | 0.00 | 0.00 | 90 | 1014.8 |
| 20260502105314 | 36 | 276 | 0.0 | 1.0 | 0.00 | 0.00 | 0.00 | 90 | 1014.9 |
| 20260502104812 | 36 | 277 | 0.0 | 0.0 | 0.00 | 0.00 | 0.00 | 90 | 1014.8 |
| 20260502104309 | 36 | 277 | 0.0 | 0.0 | 0.00 | 0.00 | 0.00 | 91 | 1014.7 |
| 20260502103806 | 36 | 276 | 0.0 | 0.0 | 0.00 | 0.00 | 0.00 | 91 | 1014.8 |
| 20260502103303 | 36 | 276 | 0.0 | 0.0 | 0.00 | 0.00 | 0.00 | 91 | 1014.7 |
| 20260502102801 | 35 | 276 | 0.0 | 0.0 | 0.00 | 0.00 | 0.00 | 91 | 1014.8 |
| 20260502102257 | 35 | 276 | 0.0 | 0.0 | 0.00 | 0.00 | 0.00 | 91 | 1014.8 |
| 20260502101755 | 35 | 276 | 0.0 | 0.0 | 0.00 | 0.00 | 0.00 | 90 | 1014.6 |
| 20260502101253 | 36 | 276 | 0.0 | 0.0 | 0.00 | 0.00 | 0.00 | 90 | 1014.4 |
| 20260502100751 | 36 | 277 | 0.0 | 0.0 | 0.00 | 0.00 | 0.00 | 90 | 1014.8 |
| 20260502100249 | 36 | 278 | 0.0 | 0.0 | 0.00 | 0.00 | 0.00 | 90 | 1014.6 |
| 20260502091224 | 36 | 320 | 0.0 | 0.0 | 0.00 | 0.06 | 0.06 | 90 | 1014.6 |
| 20260502090721 | 35 | 321 | 0.0 | 0.0 | 0.00 | 0.06 | 0.06 | 90 | 1014.8 |
| 20260502090217 | 35 | 321 | 0.0 | 0.0 | 0.00 | 0.06 | 0.06 | 90 | 1014.7 |
| 20260502071113 | 37 | 307 | 0.0 | 0.0 | 0.00 | 0.06 | 0.06 | 86 | 1014.9 |
| 20260502070611 | 37 | 261 | 0.0 | 1.0 | 0.00 | 0.06 | 0.06 | 86 | 1014.9 |
| 20260502070109 | 37 | 329 | 1.0 | 2.0 | 0.00 | 0.06 | 0.06 | 87 | 1014.8 |
| 20260502065607 | 37 | 337 | 1.0 | 2.0 | 0.00 | 0.06 | 0.06 | 87 | 1014.9 |
| 20260502065104 | 37 | 336 | 2.0 | 3.0 | 0.00 | 0.06 | 0.06 | 87 | 1014.7 |
| 20260502064602 | 37 | 329 | 2.0 | 2.0 | 0.00 | 0.06 | 0.06 | 87 | 1014.7 |
| 20260502064059 | 37 | 332 | 1.0 | 1.0 | 0.00 | 0.06 | 0.06 | 87 | 1014.7 |
| 20260502063557 | 37 | 15 | 0.0 | 1.0 | 0.00 | 0.06 | 0.06 | 88 | 1014.7 |
| 20260502063054 | 37 | 341 | 1.0 | 1.0 | 0.00 | 0.06 | 0.06 | 88 | 1014.7 |
| 20260502062551 | 37 | 329 | 1.0 | 2.0 | 0.00 | 0.06 | 0.06 | 88 | 1014.7 |
| 20260502062049 | 37 | 319 | 0.0 | 1.0 | 0.00 | 0.06 | 0.06 | 87 | 1014.4 |
| 20260502061547 | 37 | 294 | 0.0 | 1.0 | 0.00 | 0.06 | 0.06 | 87 | 1014.4 |
| 20260502061044 | 37 | 0 | 2.0 | 2.0 | 0.00 | 0.06 | 0.06 | 87 | 1014.4 |
| 20260502060539 | 37 | 283 | 0.0 | 1.0 | 0.00 | 0.06 | 0.06 | 87 | 1014.8 |
| 20260502060036 | 37 | 330 | 1.0 | 1.0 | 0.00 | 0.06 | 0.06 | 87 | 1014.8 |
| 20260502055534 | 37 | 327 | 1.0 | 1.0 | 0.00 | 0.06 | 0.06 | 87 | 1014.8 |
| 20260502055032 | 37 | 320 | 1.0 | 2.0 | 0.00 | 0.06 | 0.06 | 88 | 1014.9 |
| 20260502054531 | 37 | 306 | 0.0 | 0.0 | 0.00 | 0.06 | 0.06 | 88 | 1014.9 |
| 20260502054027 | 37 | 328 | 0.0 | 1.0 | 0.00 | 0.06 | 0.06 | 89 | 1015.0 |
| 20260502053524 | 37 | 330 | 1.0 | 2.0 | 0.00 | 0.06 | 0.06 | 88 | 1014.8 |
| 20260502053022 | 37 | 326 | 2.0 | 2.0 | 0.00 | 0.06 | 0.06 | 88 | 1014.9 |
| 20260502052520 | 37 | 304 | 1.0 | 2.0 | 0.00 | 0.06 | 0.06 | 88 | 1014.7 |
| 20260502052018 | 37 | 333 | 2.0 | 2.0 | 0.00 | 0.06 | 0.06 | 88 | 1014.7 |
| 20260502051516 | 37 | 2 | 1.0 | 2.0 | 0.00 | 0.06 | 0.06 | 89 | 1014.7 |
| 20260502051013 | 38 | 324 | 4.0 | 4.0 | 0.00 | 0.06 | 0.06 | 89 | 1014.7 |
| 20260502050509 | 38 | 356 | 2.0 | 2.0 | 0.00 | 0.06 | 0.06 | 89 | 1014.8 |
| 20260502050007 | 38 | 27 | 3.0 | 3.0 | 0.00 | 0.06 | 0.06 | 89 | 1014.4 |
| 20260502045503 | 38 | 324 | 3.0 | 4.0 | 0.00 | 0.06 | 0.06 | 89 | 1014.4 |
| 20260502045000 | 38 | 349 | 3.0 | 6.0 | 0.00 | 0.06 | 0.06 | 89 | 1014.3 |
| 20260502044456 | 39 | 340 | 2.0 | 3.0 | 0.00 | 0.06 | 0.06 | 89 | 1014.4 |
| 20260502043953 | 39 | 304 | 6.0 | 8.0 | 0.00 | 0.06 | 0.06 | 89 | 1014.4 |
| 20260502043451 | 39 | 352 | 9.0 | 9.0 | 0.00 | 0.06 | 0.06 | 90 | 1014.3 |
| 20260502042950 | 39 | 340 | 4.0 | 4.0 | 0.00 | 0.06 | 0.06 | 90 | 1014.3 |
| 20260502042447 | 39 | 353 | 2.0 | 3.0 | 0.00 | 0.06 | 0.06 | 90 | 1014.3 |
| 20260502041944 | 39 | 333 | 4.0 | 6.0 | 0.00 | 0.06 | 0.06 | 90 | 1014.4 |
| 20260502041442 | 39 | 287 | 3.0 | 3.0 | 0.00 | 0.06 | 0.06 | 90 | 1014.2 |
| 20260502040939 | 39 | 257 | 3.0 | 3.0 | 0.00 | 0.06 | 0.06 | 90 | 1014.4 |
| 20260502040435 | 39 | 275 | 1.0 | 2.0 | 0.00 | 0.06 | 0.06 | 90 | 1014.4 |
| 20260502035932 | 39 | 303 | 0.0 | 1.0 | 0.00 | 0.06 | 0.06 | 90 | 1014.7 |
| 20260502035428 | 39 | 300 | 2.0 | 3.0 | 0.00 | 0.06 | 0.06 | 90 | 1014.3 |
| 20260502034926 | 39 | 292 | 1.0 | 1.0 | 0.00 | 0.06 | 0.06 | 91 | 1014.2 |
| 20260502034425 | 40 | 227 | 1.0 | 1.0 | 0.00 | 0.06 | 0.06 | 91 | 1014.2 |
| 20260502033923 | 40 | 323 | 2.0 | 3.0 | 0.00 | 0.06 | 0.06 | 91 | 1014.2 |
| 20260502033420 | 40 | 5 | 1.0 | 2.0 | 0.00 | 0.06 | 0.06 | 91 | 1014.1 |
| 20260502032916 | 40 | 316 | 0.0 | 1.0 | 0.00 | 0.06 | 0.06 | 91 | 1013.8 |
| 20260502032413 | 40 | 260 | 1.0 | 1.0 | 0.00 | 0.06 | 0.06 | 91 | 1013.9 |
| 20260502031910 | 40 | 242 | 1.0 | 1.0 | 0.00 | 0.06 | 0.06 | 91 | 1013.8 |
| 20260502031409 | 41 | 277 | 3.0 | 3.0 | 0.00 | 0.06 | 0.06 | 91 | 1013.9 |
| 20260502030906 | 41 | 346 | 1.0 | 1.0 | 0.00 | 0.06 | 0.06 | 91 | 1013.7 |
| 20260502030404 | 41 | 358 | 2.0 | 3.0 | 0.00 | 0.06 | 0.06 | 91 | 1013.8 |
| 20260502025902 | 41 | 289 | 1.0 | 1.0 | 0.00 | 0.06 | 0.06 | 91 | 1013.8 |
| 20260502025359 | 41 | 269 | 2.0 | 2.0 | 0.00 | 0.06 | 0.06 | 91 | 1013.7 |
| 20260502024856 | 41 | 270 | 1.0 | 2.0 | 0.00 | 0.06 | 0.06 | 91 | 1013.7 |
| 20260502024354 | 41 | 274 | 1.0 | 1.0 | 0.00 | 0.06 | 0.06 | 91 | 1013.9 |
| 20260502023852 | 41 | 249 | 0.0 | 1.0 | 0.00 | 0.06 | 0.06 | 91 | 1013.9 |
| 20260502023349 | 41 | 269 | 0.0 | 0.0 | 0.00 | 0.06 | 0.06 | 91 | 1014.1 |
| 20260502022847 | 41 | 309 | 0.0 | 0.0 | 0.00 | 0.06 | 0.06 | 90 | 1013.9 |
| 20260502022343 | 41 | 264 | 2.0 | 3.0 | 0.00 | 0.06 | 0.06 | 91 | 1014.2 |
| 20260502021840 | 41 | 221 | 1.0 | 2.0 | 0.00 | 0.06 | 0.06 | 91 | 1013.9 |
| 20260502021337 | 41 | 291 | 2.0 | 3.0 | 0.00 | 0.06 | 0.06 | 91 | 1013.9 |
| 20260502020835 | 41 | 293 | 2.0 | 3.0 | 0.00 | 0.06 | 0.06 | 92 | 1014.0 |
| 20260502020332 | 41 | 270 | 1.0 | 2.0 | 0.00 | 0.06 | 0.06 | 92 | 1013.7 |
| 20260502015829 | 41 | 284 | 1.0 | 1.0 | 0.00 | 0.06 | 0.06 | 92 | 1013.7 |
| 20260502015326 | 41 | 174 | 0.0 | 1.0 | 0.07 | 0.06 | 0.06 | 92 | 1013.6 |
| 20260502014823 | 41 | 314 | 0.0 | 1.0 | 0.07 | 0.06 | 0.06 | 92 | 1013.6 |
| 20260502014320 | 41 | 146 | 0.0 | 1.0 | 0.00 | 0.05 | 0.05 | 91 | 1013.3 |
| 20260502013816 | 41 | 265 | 2.0 | 2.0 | 0.00 | 0.05 | 0.05 | 91 | 1013.4 |
| 20260502013312 | 42 | 288 | 2.0 | 4.0 | 0.05 | 0.05 | 0.05 | 91 | 1013.3 |
| 20260502012809 | 43 | 259 | 3.0 | 3.0 | 0.12 | 0.05 | 0.05 | 91 | 1013.4 |
| 20260502012307 | 43 | 323 | 1.0 | 3.0 | 0.07 | 0.04 | 0.04 | 92 | 1012.9 |
| 20260502011804 | 43 | 278 | 4.0 | 4.0 | 0.00 | 0.03 | 0.03 | 92 | 1012.7 |
| 20260502011300 | 43 | 302 | 4.0 | 4.0 | 0.00 | 0.03 | 0.03 | 92 | 1012.4 |
| 20260502010757 | 43 | 263 | 0.0 | 0.0 | 0.00 | 0.03 | 0.03 | 92 | 1012.4 |
| 20260502010253 | 43 | 267 | 0.0 | 0.0 | 0.00 | 0.03 | 0.03 | 92 | 1012.3 |
| 20260502005750 | 43 | 189 | 1.0 | 1.0 | 0.00 | 0.03 | 0.03 | 92 | 1012.1 |
| 20260502005248 | 43 | 226 | 2.0 | 2.0 | 0.00 | 0.03 | 0.03 | 92 | 1012.2 |
| 20260502004745 | 43 | 221 | 1.0 | 2.0 | 0.00 | 0.03 | 0.03 | 92 | 1012.1 |
| 20260502004241 | 43 | 222 | 1.0 | 1.0 | 0.00 | 0.03 | 0.03 | 92 | 1012.0 |
| 20260502003739 | 43 | 209 | 0.0 | 1.0 | 0.00 | 0.03 | 0.03 | 92 | 1012.1 |
| 20260502003236 | 43 | 159 | 1.0 | 2.0 | 0.00 | 0.03 | 0.03 | 91 | 1011.8 |
| 20260502002732 | 43 | 241 | 0.0 | 0.0 | 0.00 | 0.03 | 0.03 | 91 | 1011.7 |
| 20260502002230 | 43 | 208 | 0.0 | 1.0 | 0.00 | 0.03 | 0.03 | 90 | 1011.8 |
| 20260502001726 | 43 | 227 | 1.0 | 1.0 | 0.00 | 0.03 | 0.03 | 90 | 1011.6 |
| 20260502001225 | 43 | 226 | 0.0 | 1.0 | 0.00 | 0.03 | 0.03 | 90 | 1011.7 |
| 20260502000722 | 43 | 232 | 0.0 | 0.0 | 0.00 | 0.03 | 0.03 | 90 | 1011.7 |
| 20260502000220 | 44 | 201 | 1.0 | 1.0 | 0.00 | 0.03 | 0.03 | 90 | 1011.8 |
| 20260501235715 | 43 | 209 | 2.0 | 3.0 | 0.05 | 0.03 | 0.03 | 90 | 1011.8 |
| 20260501235211 | 44 | 200 | 1.0 | 2.0 | 0.05 | 0.03 | 0.03 | 91 | 1011.8 |
| 20260501234707 | 44 | 207 | 0.0 | 0.0 | 0.05 | 0.03 | 0.03 | 90 | 1011.7 |
| 20260501234205 | 44 | 223 | 0.0 | 0.0 | 0.07 | 0.02 | 0.02 | 90 | 1012.0 |
| 20260501233703 | 44 | 215 | 0.0 | 1.0 | 0.12 | 0.02 | 0.02 | 88 | 1011.9 |